| time (UTC) | temp F | wind direction | speed MPH | gust MPH | rain 1hr in | rain 24hr in | rain mn in | humidity % | barometer mb |
| 20260831033754 | 69 | 247 | 0.0 | 0.0 | 0.00 | 0.04 | 0.04 | 99 | 985.8 |
| 20260831033249 | 69 | 247 | 0.0 | 0.0 | 0.00 | 0.04 | 0.04 | 99 | 985.8 |
| 20260831032744 | 69 | 247 | 0.0 | 0.0 | 0.00 | 0.04 | 0.04 | 99 | 985.8 |
| 20260831032239 | 69 | 247 | 0.0 | 0.0 | 0.00 | 0.04 | 0.04 | 99 | 985.8 |
| 20260831031734 | 69 | 247 | 0.0 | 0.0 | 0.00 | 0.04 | 0.04 | 99 | 985.8 |
| 20260831031228 | 69 | 247 | 0.0 | 0.0 | 0.00 | 0.04 | 0.04 | 99 | 986.0 |
| 20260831030728 | 69 | 247 | 0.0 | 0.0 | 0.00 | 0.04 | 0.04 | 99 | 985.8 |
| 20260831030227 | 69 | 247 | 0.0 | 0.0 | 0.00 | 0.04 | 0.04 | 99 | 985.8 |
| 20260831025726 | 69 | 247 | 0.0 | 0.0 | 0.00 | 0.04 | 0.04 | 99 | 986.0 |
| 20260831025221 | 69 | 247 | 0.0 | 0.0 | 0.00 | 0.04 | 0.04 | 99 | 985.8 |
| 20260831024717 | 69 | 247 | 0.0 | 0.0 | 0.00 | 0.04 | 0.04 | 99 | 986.0 |
| 20260831024215 | 69 | 247 | 0.0 | 0.0 | 0.00 | 0.04 | 0.04 | 99 | 985.8 |
| 20260831023714 | 69 | 247 | 0.0 | 0.0 | 0.00 | 0.04 | 0.04 | 99 | 986.0 |
| 20260831023213 | 69 | 247 | 0.0 | 0.0 | 0.00 | 0.04 | 0.04 | 99 | 985.9 |
| 20260831022708 | 69 | 247 | 0.0 | 0.0 | 0.00 | 0.04 | 0.04 | 99 | 985.7 |
| 20260831022203 | 69 | 247 | 0.0 | 0.0 | 0.00 | 0.04 | 0.04 | 99 | 985.7 |
| 20260831021702 | 69 | 247 | 0.0 | 0.0 | 0.00 | 0.04 | 0.04 | 99 | 985.8 |
| 20260831021152 | 69 | 247 | 0.0 | 0.0 | 0.00 | 0.04 | 0.04 | 99 | 985.7 |
| 20260831020648 | 69 | 247 | 0.0 | 0.0 | 0.00 | 0.04 | 0.04 | 99 | 985.9 |
| 20260831020148 | 69 | 247 | 0.0 | 0.0 | 0.00 | 0.04 | 0.04 | 99 | 986.0 |
| 20260831015643 | 69 | 247 | 0.0 | 0.0 | 0.00 | 0.04 | 0.04 | 99 | 985.6 |
| 20260831015142 | 69 | 247 | 0.0 | 0.0 | 0.00 | 0.04 | 0.04 | 99 | 985.8 |
| 20260831014637 | 69 | 247 | 0.0 | 0.0 | 0.00 | 0.04 | 0.04 | 99 | 985.9 |
| 20260831014127 | 69 | 247 | 0.0 | 0.0 | 0.00 | 0.04 | 0.04 | 99 | 985.6 |
| 20260831013624 | 69 | 247 | 0.0 | 0.0 | 0.00 | 0.04 | 0.04 | 99 | 985.7 |
| 20260831013123 | 69 | 247 | 0.0 | 0.0 | 0.00 | 0.04 | 0.04 | 99 | 985.6 |
| 20260831012618 | 69 | 247 | 0.0 | 0.0 | 0.00 | 0.04 | 0.04 | 99 | 985.7 |
| 20260831012113 | 69 | 247 | 0.0 | 0.0 | 0.00 | 0.04 | 0.04 | 99 | 985.5 |
| 20260831011613 | 69 | 247 | 0.0 | 0.0 | 0.00 | 0.04 | 0.04 | 99 | 985.6 |
| 20260831011108 | 69 | 247 | 0.0 | 0.0 | 0.00 | 0.04 | 0.04 | 99 | 985.6 |
| 20260831010604 | 69 | 247 | 0.0 | 0.0 | 0.00 | 0.04 | 0.04 | 99 | 985.4 |
| 20260831010100 | 69 | 247 | 0.0 | 0.0 | 0.00 | 0.04 | 0.04 | 99 | 985.3 |
| 20260831005559 | 69 | 247 | 0.0 | 0.0 | 0.00 | 0.04 | 0.04 | 99 | 985.6 |
| 20260831005059 | 69 | 247 | 0.0 | 0.0 | 0.00 | 0.04 | 0.04 | 99 | 985.5 |
| 20260831004555 | 69 | 247 | 0.0 | 0.0 | 0.00 | 0.04 | 0.04 | 99 | 985.6 |
| 20260831004051 | 69 | 247 | 0.0 | 0.0 | 0.00 | 0.04 | 0.04 | 99 | 985.2 |
| 20260831003547 | 69 | 247 | 0.0 | 0.0 | 0.00 | 0.04 | 0.04 | 99 | 985.0 |
| 20260831003043 | 69 | 247 | 0.0 | 0.0 | 0.00 | 0.04 | 0.04 | 99 | 985.0 |
| 20260831002541 | 69 | 247 | 0.0 | 0.0 | 0.00 | 0.04 | 0.04 | 99 | 985.0 |
| 20260831002036 | 69 | 247 | 0.0 | 0.0 | 0.00 | 0.04 | 0.04 | 99 | 985.1 |
| 20260831001532 | 70 | 247 | 0.0 | 0.0 | 0.00 | 0.04 | 0.04 | 99 | 985.0 |
| 20260831001028 | 70 | 247 | 0.0 | 0.0 | 0.00 | 0.04 | 0.04 | 99 | 985.2 |
| 20260831000525 | 70 | 247 | 0.0 | 0.0 | 0.00 | 0.04 | 0.04 | 99 | 985.0 |
| 20260831000024 | 70 | 247 | 0.0 | 0.0 | 0.00 | 0.04 | 0.04 | 99 | 984.8 |
| 20260830235523 | 70 | 247 | 0.0 | 0.0 | 0.00 | 0.04 | 0.04 | 99 | 984.8 |
| 20260830235019 | 71 | 247 | 0.0 | 0.0 | 0.00 | 0.04 | 0.04 | 99 | 984.8 |
| 20260830234514 | 71 | 247 | 0.0 | 0.0 | 0.00 | 0.04 | 0.04 | 99 | 984.7 |
| 20260830234009 | 71 | 247 | 0.0 | 0.0 | 0.00 | 0.04 | 0.04 | 99 | 984.6 |
| 20260830233504 | 71 | 247 | 0.0 | 0.0 | 0.00 | 0.04 | 0.04 | 99 | 984.6 |
| 20260830233000 | 71 | 247 | 0.0 | 0.0 | 0.00 | 0.04 | 0.04 | 99 | 984.7 |
| 20260830232456 | 71 | 247 | 0.0 | 0.0 | 0.00 | 0.04 | 0.04 | 99 | 984.6 |
| 20260830231952 | 71 | 247 | 0.0 | 0.0 | 0.00 | 0.04 | 0.04 | 99 | 984.4 |
| 20260830231448 | 72 | 247 | 0.0 | 0.0 | 0.00 | 0.04 | 0.04 | 99 | 984.5 |
| 20260830230946 | 72 | 247 | 0.0 | 0.0 | 0.00 | 0.04 | 0.04 | 98 | 984.5 |
| 20260830230442 | 72 | 247 | 0.0 | 0.0 | 0.00 | 0.04 | 0.04 | 98 | 984.6 |
| 20260830225941 | 72 | 247 | 0.0 | 0.0 | 0.00 | 0.04 | 0.04 | 98 | 984.6 |
| 20260830225437 | 72 | 247 | 0.0 | 0.0 | 0.00 | 0.04 | 0.04 | 98 | 984.7 |
| 20260830224932 | 72 | 247 | 0.0 | 1.0 | 0.00 | 0.04 | 0.04 | 97 | 984.6 |
| 20260830224430 | 73 | 247 | 0.0 | 1.0 | 0.00 | 0.04 | 0.04 | 97 | 984.7 |
| 20260830223927 | 73 | 250 | 1.0 | 2.0 | 0.00 | 0.04 | 0.04 | 97 | 984.6 |
| 20260830223424 | 73 | 238 | 2.0 | 2.0 | 0.00 | 0.04 | 0.04 | 96 | 984.7 |
| 20260830222922 | 74 | 233 | 0.0 | 0.0 | 0.00 | 0.04 | 0.04 | 95 | 984.8 |
| 20260830222418 | 75 | 233 | 0.0 | 1.0 | 0.00 | 0.04 | 0.04 | 93 | 984.9 |
| 20260830221914 | 75 | 233 | 1.0 | 1.0 | 0.00 | 0.04 | 0.04 | 92 | 985.0 |
| 20260830221410 | 76 | 231 | 0.0 | 1.0 | 0.00 | 0.04 | 0.04 | 92 | 985.0 |
| 20260830220905 | 78 | 222 | 0.0 | 2.0 | 0.00 | 0.04 | 0.04 | 85 | 985.0 |
| 20260830220404 | 78 | 189 | 0.0 | 1.0 | 0.00 | 0.04 | 0.04 | 83 | 985.0 |
| 20260830215857 | 76 | 189 | 1.0 | 1.0 | 0.00 | 0.04 | 0.04 | 85 | 985.1 |
| 20260830215356 | 75 | 189 | 0.0 | 1.0 | 0.00 | 0.04 | 0.04 | 88 | 984.8 |
| 20260830214851 | 75 | 109 | 1.0 | 1.0 | 0.00 | 0.04 | 0.04 | 90 | 984.8 |
| 20260830214347 | 75 | 109 | 1.0 | 1.0 | 0.00 | 0.04 | 0.04 | 90 | 984.9 |
| 20260830213846 | 75 | 104 | 2.0 | 3.0 | 0.00 | 0.04 | 0.04 | 89 | 985.0 |
| 20260830213342 | 75 | 128 | 2.0 | 4.0 | 0.00 | 0.04 | 0.04 | 89 | 985.2 |
| 20260830212837 | 76 | 124 | 0.0 | 2.0 | 0.00 | 0.04 | 0.04 | 90 | 985.2 |
| 20260830212333 | 76 | 110 | 0.0 | 2.0 | 0.00 | 0.04 | 0.04 | 89 | 985.4 |
| 20260830211832 | 76 | 119 | 2.0 | 2.0 | 0.00 | 0.04 | 0.04 | 89 | 985.5 |
| 20260830211326 | 78 | 149 | 1.0 | 2.0 | 0.00 | 0.04 | 0.04 | 90 | 985.9 |
| 20260830210822 | 80 | 149 | 1.0 | 1.0 | 0.00 | 0.04 | 0.04 | 87 | 985.3 |
| 20260830210321 | 80 | 149 | 1.0 | 1.0 | 0.00 | 0.04 | 0.04 | 81 | 985.1 |
| 20260830205820 | 80 | 159 | 0.0 | 0.0 | 0.00 | 0.04 | 0.04 | 84 | 985.0 |
| 20260830205319 | 79 | 159 | 1.0 | 1.0 | 0.00 | 0.04 | 0.04 | 82 | 984.9 |
| 20260830204815 | 79 | 159 | 1.0 | 1.0 | 0.00 | 0.04 | 0.04 | 83 | 985.0 |
| 20260830204313 | 78 | 159 | 0.0 | 1.0 | 0.00 | 0.04 | 0.04 | 82 | 985.2 |
| 20260830203809 | 76 | 107 | 0.0 | 1.0 | 0.00 | 0.04 | 0.04 | 87 | 985.2 |
| 20260830203305 | 75 | 54 | 1.0 | 1.0 | 0.00 | 0.04 | 0.04 | 88 | 985.3 |
| 20260830202804 | 73 | 54 | 2.0 | 2.0 | 0.00 | 0.04 | 0.04 | 92 | 985.2 |
| 20260830202300 | 73 | 52 | 0.0 | 0.0 | 0.00 | 0.04 | 0.04 | 95 | 985.4 |
| 20260830201800 | 73 | 58 | 3.0 | 3.0 | 0.00 | 0.04 | 0.04 | 95 | 985.7 |
| 20260830201255 | 73 | 31 | 0.0 | 3.0 | 0.00 | 0.04 | 0.04 | 97 | 985.5 |
| 20260830200750 | 73 | 227 | 0.0 | 0.0 | 0.00 | 0.04 | 0.04 | 96 | 985.3 |
| 20260830200249 | 74 | 227 | 0.0 | 0.0 | 0.00 | 0.04 | 0.04 | 97 | 985.3 |
| 20260830195745 | 73 | 227 | 0.0 | 0.0 | 0.00 | 0.04 | 0.04 | 94 | 985.3 |
| 20260830195244 | 73 | 227 | 0.0 | 0.0 | 0.00 | 0.04 | 0.04 | 95 | 985.5 |
| 20260830194742 | 73 | 227 | 0.0 | 0.0 | 0.00 | 0.04 | 0.04 | 95 | 985.5 |
| 20260830194237 | 73 | 227 | 1.0 | 2.0 | 0.00 | 0.04 | 0.04 | 94 | 985.7 |
| 20260830193731 | 73 | 227 | 1.0 | 2.0 | 0.00 | 0.04 | 0.04 | 94 | 985.6 |
| 20260830193225 | 72 | 228 | 0.0 | 0.0 | 0.07 | 0.04 | 0.04 | 97 | 985.8 |
| 20260830192722 | 72 | 228 | 1.0 | 1.0 | 0.12 | 0.03 | 0.03 | 96 | 986.0 |
| 20260830192216 | 72 | 228 | 0.0 | 1.0 | 0.12 | 0.03 | 0.03 | 93 | 986.1 |
| 20260830191713 | 74 | 209 | 4.0 | 4.0 | 0.07 | 0.01 | 0.01 | 90 | 986.3 |
| 20260830191212 | 74 | 209 | 4.0 | 4.0 | 0.07 | 0.01 | 0.01 | 90 | 986.6 |
| 20260830190708 | 75 | 105 | 3.0 | 4.0 | 0.00 | 0.00 | 0.00 | 87 | 986.5 |
| 20260830190203 | 78 | 85 | 2.0 | 11.0 | 0.00 | 0.00 | 0.00 | 83 | 986.5 |
| 20260830185701 | 81 | 147 | 5.0 | 8.0 | 0.00 | 0.00 | 0.00 | 76 | 986.4 |
| 20260830185157 | 85 | 60 | 4.0 | 4.0 | 0.00 | 0.00 | 0.00 | 67 | 985.9 |
| 20260830184656 | 86 | 81 | 0.0 | 0.0 | 0.00 | 0.00 | 0.00 | 65 | 985.7 |
| 20260830184155 | 88 | 83 | 3.0 | 3.0 | 0.00 | 0.00 | 0.00 | 60 | 985.8 |
| 20260830183650 | 88 | 211 | 3.0 | 3.0 | 0.00 | 0.00 | 0.00 | 64 | 985.6 |
| 20260830183146 | 87 | 105 | 1.0 | 2.0 | 0.00 | 0.00 | 0.00 | 69 | 985.6 |
| 20260830182646 | 86 | 82 | 2.0 | 2.0 | 0.00 | 0.00 | 0.00 | 65 | 985.3 |
| 20260830182143 | 87 | 297 | 4.0 | 6.0 | 0.00 | 0.00 | 0.00 | 66 | 985.7 |
| 20260830181639 | 87 | 81 | 2.0 | 2.0 | 0.00 | 0.00 | 0.00 | 68 | 985.7 |
| 20260830181138 | 86 | 107 | 2.0 | 3.0 | 0.00 | 0.00 | 0.00 | 69 | 985.7 |
| 20260830180637 | 86 | 92 | 1.0 | 2.0 | 0.00 | 0.00 | 0.00 | 67 | 985.7 |
| 20260830180132 | 86 | 91 | 2.0 | 3.0 | 0.00 | 0.00 | 0.00 | 70 | 985.7 |
| 20260830175631 | 85 | 152 | 3.0 | 4.0 | 0.00 | 0.00 | 0.00 | 68 | 986.1 |
| 20260830175126 | 84 | 70 | 2.0 | 2.0 | 0.00 | 0.00 | 0.00 | 70 | 986.2 |
| 20260830174622 | 86 | 335 | 2.0 | 2.0 | 0.00 | 0.00 | 0.00 | 71 | 986.4 |
| 20260830174117 | 86 | 312 | 2.0 | 4.0 | 0.00 | 0.00 | 0.00 | 67 | 986.4 |
| 20260830173612 | 87 | 52 | 2.0 | 3.0 | 0.00 | 0.00 | 0.00 | 68 | 986.3 |
| 20260830173107 | 85 | 91 | 3.0 | 6.0 | 0.00 | 0.00 | 0.00 | 70 | 986.5 |
| 20260830172604 | 85 | 138 | 2.0 | 2.0 | 0.00 | 0.00 | 0.00 | 73 | 986.6 |
| 20260830172100 | 83 | 249 | 0.0 | 1.0 | 0.00 | 0.00 | 0.00 | 73 | 986.5 |
| 20260830171555 | 84 | 150 | 2.0 | 3.0 | 0.00 | 0.00 | 0.00 | 72 | 986.6 |
| 20260830171050 | 86 | 41 | 1.0 | 1.0 | 0.00 | 0.00 | 0.00 | 70 | 986.9 |
| 20260830170550 | 86 | 311 | 2.0 | 2.0 | 0.00 | 0.00 | 0.00 | 70 | 986.8 |
| 20260830170049 | 85 | 310 | 3.0 | 6.0 | 0.00 | 0.00 | 0.00 | 71 | 986.8 |
| 20260830165544 | 86 | 68 | 4.0 | 4.0 | 0.00 | 0.00 | 0.00 | 71 | 986.7 |
| 20260830165040 | 85 | 119 | 2.0 | 6.0 | 0.00 | 0.00 | 0.00 | 69 | 986.8 |
| 20260830164536 | 86 | 70 | 1.0 | 4.0 | 0.00 | 0.00 | 0.00 | 70 | 986.6 |
| 20260830164032 | 85 | 122 | 5.0 | 6.0 | 0.00 | 0.00 | 0.00 | 71 | 986.8 |
| 20260830163528 | 85 | 101 | 3.0 | 4.0 | 0.00 | 0.00 | 0.00 | 70 | 986.8 |
| 20260830163027 | 85 | 295 | 1.0 | 4.0 | 0.00 | 0.00 | 0.00 | 70 | 986.5 |
| 20260830162519 | 85 | 103 | 3.0 | 3.0 | 0.00 | 0.00 | 0.00 | 72 | 986.9 |
| 20260830162018 | 85 | 156 | 0.0 | 3.0 | 0.00 | 0.00 | 0.00 | 69 | 987.0 |
| 20260830161513 | 85 | 162 | 4.0 | 7.0 | 0.00 | 0.00 | 0.00 | 71 | 987.0 |
| 20260830161008 | 85 | 341 | 2.0 | 2.0 | 0.00 | 0.00 | 0.00 | 74 | 986.9 |
| 20260830160505 | 85 | 105 | 1.0 | 2.0 | 0.00 | 0.00 | 0.00 | 69 | 987.1 |
| 20260830160004 | 85 | 62 | 2.0 | 3.0 | 0.00 | 0.00 | 0.00 | 70 | 987.2 |
| 20260830155501 | 84 | 351 | 2.0 | 3.0 | 0.00 | 0.00 | 0.00 | 73 | 987.1 |
| 20260830154956 | 84 | 241 | 2.0 | 4.0 | 0.00 | 0.00 | 0.00 | 70 | 987.2 |
| 20260830154451 | 84 | 55 | 2.0 | 3.0 | 0.00 | 0.00 | 0.00 | 72 | 987.1 |
| 20260830153948 | 85 | 115 | 2.0 | 4.0 | 0.00 | 0.00 | 0.00 | 71 | 987.0 |
| 20260830153443 | 84 | 281 | 3.0 | 6.0 | 0.00 | 0.00 | 0.00 | 70 | 987.3 |
| 20260830152942 | 84 | 107 | 3.0 | 3.0 | 0.00 | 0.00 | 0.00 | 72 | 987.3 |
| 20260830152438 | 83 | 207 | 1.0 | 6.0 | 0.00 | 0.00 | 0.00 | 77 | 987.2 |
| 20260830151937 | 83 | 102 | 2.0 | 4.0 | 0.00 | 0.00 | 0.00 | 73 | 987.2 |
| 20260830151437 | 83 | 102 | 2.0 | 6.0 | 0.00 | 0.00 | 0.00 | 73 | 987.1 |
| 20260830150926 | 83 | 111 | 1.0 | 1.0 | 0.00 | 0.00 | 0.00 | 72 | 986.9 |
| 20260830150426 | 82 | 93 | 2.0 | 4.0 | 0.00 | 0.00 | 0.00 | 76 | 987.0 |
| 20260830145920 | 83 | 111 | 4.0 | 4.0 | 0.00 | 0.00 | 0.00 | 74 | 986.9 |
| 20260830145420 | 82 | 167 | 2.0 | 8.0 | 0.00 | 0.00 | 0.00 | 74 | 987.0 |
| 20260830144916 | 83 | 126 | 1.0 | 2.0 | 0.00 | 0.00 | 0.00 | 73 | 987.0 |
| 20260830144412 | 81 | 109 | 1.0 | 6.0 | 0.00 | 0.00 | 0.00 | 77 | 986.9 |
| 20260830143907 | 81 | 116 | 2.0 | 3.0 | 0.00 | 0.00 | 0.00 | 77 | 987.0 |
| 20260830143402 | 81 | 113 | 2.0 | 4.0 | 0.00 | 0.00 | 0.00 | 78 | 987.1 |
| 20260830142901 | 81 | 103 | 2.0 | 3.0 | 0.00 | 0.00 | 0.00 | 77 | 986.9 |
| 20260830142356 | 80 | 113 | 1.0 | 3.0 | 0.00 | 0.00 | 0.00 | 77 | 987.0 |
| 20260830141851 | 81 | 158 | 1.0 | 2.0 | 0.00 | 0.00 | 0.00 | 79 | 986.8 |
| 20260830141347 | 80 | 225 | 0.0 | 4.0 | 0.00 | 0.00 | 0.00 | 76 | 986.9 |
| 20260830140841 | 79 | 155 | 2.0 | 2.0 | 0.00 | 0.00 | 0.00 | 80 | 986.8 |
| 20260830140336 | 79 | 108 | 1.0 | 4.0 | 0.00 | 0.00 | 0.00 | 79 | 986.7 |
| 20260830135830 | 79 | 24 | 2.0 | 3.0 | 0.00 | 0.00 | 0.00 | 82 | 986.7 |
| 20260830135326 | 78 | 24 | 0.0 | 2.0 | 0.00 | 0.00 | 0.00 | 84 | 986.8 |
| 20260830134822 | 78 | 351 | 1.0 | 2.0 | 0.00 | 0.00 | 0.00 | 84 | 986.5 |
| 20260830134321 | 77 | 340 | 1.0 | 2.0 | 0.00 | 0.00 | 0.00 | 87 | 986.6 |
| 20260830133813 | 76 | 337 | 1.0 | 2.0 | 0.00 | 0.00 | 0.00 | 89 | 986.6 |
| 20260830133308 | 75 | 337 | 2.0 | 2.0 | 0.00 | 0.00 | 0.00 | 90 | 986.6 |
| 20260830132803 | 75 | 337 | 0.0 | 1.0 | 0.00 | 0.00 | 0.00 | 89 | 986.6 |
| 20260830132259 | 74 | 337 | 0.0 | 0.0 | 0.00 | 0.00 | 0.00 | 89 | 986.7 |
| 20260830131757 | 74 | 337 | 0.0 | 0.0 | 0.00 | 0.00 | 0.00 | 89 | 986.5 |
| 20260830131252 | 73 | 337 | 0.0 | 0.0 | 0.00 | 0.00 | 0.00 | 91 | 986.7 |
| 20260830130748 | 73 | 337 | 0.0 | 0.0 | 0.00 | 0.00 | 0.00 | 91 | 986.9 |
| 20260830130248 | 71 | 337 | 0.0 | 0.0 | 0.00 | 0.00 | 0.00 | 91 | 987.0 |
| 20260830125742 | 69 | 337 | 0.0 | 0.0 | 0.00 | 0.00 | 0.00 | 93 | 986.7 |
| 20260830125237 | 70 | 337 | 0.0 | 0.0 | 0.00 | 0.00 | 0.00 | 94 | 986.8 |
| 20260830124734 | 69 | 337 | 0.0 | 0.0 | 0.00 | 0.00 | 0.00 | 94 | 986.8 |
| 20260830124230 | 68 | 337 | 0.0 | 0.0 | 0.00 | 0.00 | 0.00 | 97 | 986.8 |
| 20260830123727 | 67 | 337 | 0.0 | 0.0 | 0.00 | 0.00 | 0.00 | 99 | 986.9 |
| 20260830123223 | 66 | 337 | 0.0 | 0.0 | 0.00 | 0.00 | 0.00 | 99 | 986.9 |
| 20260830122720 | 65 | 337 | 0.0 | 0.0 | 0.00 | 0.00 | 0.00 | 99 | 986.9 |
| 20260830122215 | 65 | 336 | 0.0 | 0.0 | 0.00 | 0.00 | 0.00 | 99 | 986.9 |
| 20260830121710 | 64 | 336 | 0.0 | 0.0 | 0.00 | 0.00 | 0.00 | 99 | 986.8 |
| 20260830121209 | 64 | 337 | 0.0 | 0.0 | 0.00 | 0.00 | 0.00 | 99 | 987.1 |
| 20260830120704 | 64 | 336 | 0.0 | 0.0 | 0.00 | 0.00 | 0.00 | 99 | 987.0 |
| 20260830120201 | 62 | 336 | 0.0 | 0.0 | 0.00 | 0.00 | 0.00 | 99 | 986.9 |
| 20260830115656 | 62 | 336 | 0.0 | 0.0 | 0.00 | 0.00 | 0.00 | 99 | 986.9 |
| 20260830115152 | 0 | 0.0 | 0.0 | 0.00 | 0.00 | 0.00 | 986.8 | ||
| 20260830114649 | 62 | 336 | 0.0 | 0.0 | 0.00 | 0.00 | 0.00 | 99 | 986.9 |
| 20260830114148 | 62 | 336 | 0.0 | 0.0 | 0.00 | 0.00 | 0.00 | 99 | 986.8 |
| 20260830113644 | 61 | 336 | 0.0 | 0.0 | 0.00 | 0.00 | 0.00 | 99 | 986.8 |
| 20260830113138 | 61 | 336 | 0.0 | 0.0 | 0.00 | 0.00 | 0.00 | 99 | 986.7 |
| 20260830112630 | 61 | 336 | 0.0 | 0.0 | 0.00 | 0.00 | 0.00 | 99 | 986.8 |
| 20260830112126 | 61 | 336 | 0.0 | 0.0 | 0.00 | 0.00 | 0.00 | 99 | 986.9 |
| 20260830111621 | 61 | 336 | 0.0 | 0.0 | 0.00 | 0.00 | 0.00 | 99 | 986.7 |
| 20260830111116 | 61 | 336 | 0.0 | 0.0 | 0.00 | 0.00 | 0.00 | 99 | 986.9 |
| 20260830110616 | 61 | 336 | 0.0 | 0.0 | 0.00 | 0.00 | 0.00 | 99 | 986.7 |
| 20260830110112 | 61 | 336 | 0.0 | 0.0 | 0.00 | 0.00 | 0.00 | 99 | 986.7 |
| 20260830105606 | 61 | 336 | 0.0 | 0.0 | 0.00 | 0.00 | 0.00 | 99 | 986.8 |
| 20260830105102 | 61 | 336 | 0.0 | 0.0 | 0.00 | 0.00 | 0.00 | 99 | 986.5 |
| 20260830104554 | 61 | 336 | 0.0 | 0.0 | 0.00 | 0.00 | 0.00 | 99 | 986.5 |
| 20260830104049 | 61 | 336 | 0.0 | 0.0 | 0.00 | 0.00 | 0.00 | 99 | 986.6 |
| 20260830103549 | 61 | 336 | 0.0 | 0.0 | 0.00 | 0.00 | 0.00 | 99 | 986.5 |
| 20260830103048 | 61 | 336 | 0.0 | 0.0 | 0.00 | 0.00 | 0.00 | 99 | 986.6 |
| 20260830102543 | 61 | 336 | 0.0 | 0.0 | 0.00 | 0.00 | 0.00 | 99 | 986.2 |
| 20260830102039 | 61 | 336 | 0.0 | 0.0 | 0.00 | 0.00 | 0.00 | 99 | 986.6 |
| 20260830101534 | 62 | 336 | 0.0 | 0.0 | 0.00 | 0.00 | 0.00 | 99 | 986.3 |
| 20260830101033 | 62 | 336 | 0.0 | 0.0 | 0.00 | 0.00 | 0.00 | 99 | 986.4 |
| 20260830100528 | 62 | 336 | 0.0 | 0.0 | 0.00 | 0.00 | 0.00 | 99 | 986.4 |
| 20260830100027 | 62 | 336 | 0.0 | 0.0 | 0.00 | 0.00 | 0.00 | 99 | 986.3 |
| 20260830095522 | 62 | 336 | 0.0 | 0.0 | 0.00 | 0.00 | 0.00 | 99 | 986.4 |
| 20260830095018 | 62 | 336 | 0.0 | 0.0 | 0.00 | 0.00 | 0.00 | 99 | 986.3 |
| 20260830094515 | 62 | 336 | 0.0 | 0.0 | 0.00 | 0.00 | 0.00 | 99 | 986.3 |
| 20260830094009 | 62 | 336 | 0.0 | 0.0 | 0.00 | 0.00 | 0.00 | 99 | 986.3 |
| 20260830093504 | 62 | 336 | 0.0 | 0.0 | 0.00 | 0.00 | 0.00 | 99 | 986.3 |
| 20260830093001 | 62 | 336 | 0.0 | 0.0 | 0.00 | 0.00 | 0.00 | 99 | 986.3 |
| 20260830092500 | 62 | 336 | 0.0 | 0.0 | 0.00 | 0.00 | 0.00 | 99 | 986.4 |
| 20260830091957 | 62 | 336 | 0.0 | 0.0 | 0.00 | 0.00 | 0.00 | 99 | 986.3 |
| 20260830091453 | 62 | 336 | 0.0 | 0.0 | 0.00 | 0.00 | 0.00 | 99 | 986.4 |
| 20260830090951 | 62 | 336 | 0.0 | 0.0 | 0.00 | 0.00 | 0.00 | 99 | 986.3 |
| 20260830090447 | 62 | 336 | 0.0 | 0.0 | 0.00 | 0.00 | 0.00 | 99 | 986.5 |
| 20260830085942 | 62 | 336 | 0.0 | 0.0 | 0.00 | 0.00 | 0.00 | 99 | 986.2 |
| 20260830085441 | 62 | 336 | 0.0 | 0.0 | 0.00 | 0.00 | 0.00 | 99 | 986.3 |
| 20260830084937 | 63 | 336 | 0.0 | 0.0 | 0.00 | 0.00 | 0.00 | 99 | 986.4 |
| 20260830084432 | 63 | 336 | 0.0 | 0.0 | 0.00 | 0.00 | 0.00 | 99 | 986.3 |
| 20260830083928 | 63 | 336 | 0.0 | 0.0 | 0.00 | 0.00 | 0.00 | 99 | 986.4 |
| 20260830083423 | 63 | 336 | 0.0 | 0.0 | 0.00 | 0.00 | 0.00 | 99 | 986.4 |
| 20260830082923 | 63 | 336 | 0.0 | 0.0 | 0.00 | 0.00 | 0.00 | 99 | 986.6 |
| 20260830082419 | 63 | 336 | 0.0 | 0.0 | 0.00 | 0.00 | 0.00 | 99 | 986.6 |
| 20260830081913 | 63 | 336 | 0.0 | 0.0 | 0.00 | 0.00 | 0.00 | 99 | 986.8 |
| 20260830081408 | 63 | 336 | 0.0 | 0.0 | 0.00 | 0.00 | 0.00 | 99 | 986.7 |
| 20260830080907 | 63 | 336 | 0.0 | 0.0 | 0.00 | 0.00 | 0.00 | 99 | 986.6 |
| 20260830080404 | 63 | 336 | 0.0 | 0.0 | 0.00 | 0.00 | 0.00 | 99 | 986.6 |
| 20260830075903 | 63 | 336 | 0.0 | 0.0 | 0.00 | 0.00 | 0.00 | 99 | 986.4 |
| 20260830075359 | 63 | 336 | 0.0 | 0.0 | 0.00 | 0.00 | 0.00 | 99 | 986.5 |
| 20260830074854 | 64 | 336 | 0.0 | 0.0 | 0.00 | 0.00 | 0.00 | 99 | 986.2 |
| 20260830074349 | 63 | 336 | 0.0 | 0.0 | 0.00 | 0.00 | 0.00 | 99 | 986.2 |
| 20260830073845 | 64 | 336 | 0.0 | 0.0 | 0.00 | 0.00 | 0.00 | 99 | 986.3 |
| 20260830073341 | 64 | 336 | 0.0 | 0.0 | 0.00 | 0.00 | 0.00 | 99 | 986.5 |
| 20260830072836 | 64 | 336 | 0.0 | 0.0 | 0.00 | 0.00 | 0.00 | 99 | 986.2 |
| 20260830072332 | 64 | 336 | 0.0 | 0.0 | 0.00 | 0.00 | 0.00 | 99 | 986.4 |
| 20260830071831 | 64 | 337 | 0.0 | 0.0 | 0.00 | 0.00 | 0.00 | 99 | 986.3 |
| 20260830071325 | 64 | 336 | 0.0 | 0.0 | 0.00 | 0.00 | 0.00 | 99 | 986.3 |
| 20260830070825 | 64 | 336 | 0.0 | 0.0 | 0.00 | 0.00 | 0.00 | 99 | 986.2 |
| 20260830070319 | 64 | 336 | 0.0 | 0.0 | 0.00 | 0.00 | 0.00 | 99 | 986.5 |
| 20260830065818 | 64 | 336 | 0.0 | 0.0 | 0.00 | 0.00 | 0.00 | 99 | 986.4 |
| 20260830065313 | 63 | 336 | 0.0 | 0.0 | 0.00 | 0.00 | 0.00 | 99 | 986.3 |
| 20260830064812 | 64 | 336 | 0.0 | 0.0 | 0.00 | 0.00 | 0.00 | 99 | 986.5 |
| 20260830064308 | 64 | 336 | 0.0 | 0.0 | 0.00 | 0.00 | 0.00 | 99 | 986.5 |
| 20260830063806 | 64 | 336 | 0.0 | 0.0 | 0.00 | 0.00 | 0.00 | 99 | 986.5 |
| 20260830063301 | 64 | 336 | 0.0 | 0.0 | 0.00 | 0.00 | 0.00 | 99 | 986.6 |
| 20260830062755 | 64 | 336 | 0.0 | 0.0 | 0.00 | 0.00 | 0.00 | 99 | 986.7 |
| 20260830062249 | 64 | 336 | 0.0 | 0.0 | 0.00 | 0.00 | 0.00 | 99 | 986.6 |
| 20260830061743 | 63 | 336 | 0.0 | 0.0 | 0.00 | 0.00 | 0.00 | 99 | 986.6 |
| 20260830061239 | 63 | 336 | 0.0 | 0.0 | 0.00 | 0.00 | 0.00 | 99 | 986.7 |
| 20260830060736 | 64 | 336 | 0.0 | 0.0 | 0.00 | 0.00 | 0.00 | 99 | 986.9 |
| 20260830060232 | 64 | 336 | 0.0 | 0.0 | 0.00 | 0.00 | 0.00 | 99 | 986.7 |
| 20260830055727 | 64 | 336 | 0.0 | 0.0 | 0.00 | 0.00 | 0.00 | 99 | 987.0 |
| 20260830055224 | 64 | 336 | 0.0 | 0.0 | 0.00 | 0.00 | 0.00 | 99 | 986.9 |
| 20260830054718 | 64 | 336 | 0.0 | 0.0 | 0.00 | 0.00 | 0.00 | 99 | 986.8 |
| 20260830054214 | 64 | 336 | 0.0 | 0.0 | 0.00 | 0.00 | 0.00 | 99 | 986.9 |
| 20260830053710 | 64 | 336 | 0.0 | 0.0 | 0.00 | 0.00 | 0.00 | 99 | 987.0 |
| 20260830053209 | 64 | 336 | 0.0 | 0.0 | 0.00 | 0.00 | 0.00 | 99 | 986.9 |
| 20260830052704 | 64 | 336 | 0.0 | 0.0 | 0.00 | 0.00 | 0.00 | 99 | 986.9 |
| 20260830052159 | 65 | 336 | 0.0 | 0.0 | 0.00 | 0.00 | 0.00 | 99 | 986.9 |
| 20260830051659 | 65 | 336 | 0.0 | 0.0 | 0.00 | 0.00 | 0.00 | 99 | 986.8 |
| 20260830051155 | 64 | 336 | 0.0 | 0.0 | 0.00 | 0.00 | 0.00 | 99 | 986.9 |
| 20260830050653 | 65 | 337 | 0.0 | 0.0 | 0.00 | 0.00 | 0.00 | 99 | 986.9 |
| 20260830050149 | 64 | 336 | 0.0 | 0.0 | 0.00 | 0.00 | 0.00 | 99 | 986.9 |
| 20260830045647 | 64 | 336 | 0.0 | 1.0 | 0.00 | 0.00 | 0.00 | 99 | 986.8 |
| 20260830045143 | 64 | 337 | 0.0 | 0.0 | 0.00 | 0.00 | 0.00 | 99 | 986.8 |
| 20260830044641 | 64 | 336 | 0.0 | 0.0 | 0.00 | 0.00 | 0.00 | 99 | 986.9 |
| 20260830044137 | 65 | 337 | 0.0 | 0.0 | 0.00 | 0.00 | 0.00 | 99 | 986.8 |
| 20260830043632 | 64 | 336 | 0.0 | 1.0 | 0.00 | 0.00 | 0.00 | 99 | 986.9 |
| 20260830043131 | 64 | 337 | 0.0 | 1.0 | 0.00 | 0.00 | 0.00 | 99 | 986.7 |
| 20260830042629 | 64 | 336 | 0.0 | 0.0 | 0.00 | 0.00 | 0.00 | 99 | 986.8 |
| 20260830042125 | 65 | 336 | 0.0 | 0.0 | 0.00 | 0.00 | 0.00 | 99 | 986.9 |
| 20260830041623 | 64 | 336 | 0.0 | 0.0 | 0.00 | 0.00 | 0.00 | 99 | 986.8 |
| 20260830041122 | 64 | 336 | 0.0 | 0.0 | 0.00 | 0.00 | 0.00 | 99 | 986.9 |
| 20260830040618 | 65 | 336 | 0.0 | 0.0 | 0.00 | 0.00 | 0.00 | 99 | 986.5 |
| 20260830040114 | 65 | 336 | 0.0 | 0.0 | 0.00 | 0.00 | 0.00 | 99 | 986.6 |
| 20260830035612 | 65 | 336 | 0.0 | 0.0 | 0.00 | 0.00 | 0.00 | 99 | 986.9 |
| 20260830035108 | 64 | 336 | 0.0 | 0.0 | 0.00 | 0.00 | 0.00 | 99 | 986.7 |
| 20260830034603 | 64 | 336 | 0.0 | 0.0 | 0.00 | 0.00 | 0.00 | 99 | 986.7 |